Year,Month,Day,Hour,Minute,Value (Times are PST for temperature in C)
2014,08,16,00,00,17.30
2014,08,16,00,01,17.30
2014,08,16,00,02,17.30
2014,08,16,00,03,17.30
2014,08,16,00,04,17.30
2014,08,16,00,05,17.30
2014,08,16,00,06,17.30
2014,08,16,00,07,17.30
2014,08,16,00,08,17.30
2014,08,16,00,09,17.30
2014,08,16,00,10,17.30
2014,08,16,00,11,17.30
2014,08,16,00,12,17.30
2014,08,16,00,13,17.30
2014,08,16,00,14,17.30
2014,08,16,00,15,17.30
2014,08,16,00,16,17.30
2014,08,16,00,17,17.30
2014,08,16,00,18,17.30
2014,08,16,00,19,17.30
2014,08,16,00,20,17.40
2014,08,16,00,21,17.40
2014,08,16,00,22,17.40
2014,08,16,00,23,17.40
2014,08,16,00,24,17.30
2014,08,16,00,25,17.30
2014,08,16,00,26,17.30
2014,08,16,00,27,17.30
2014,08,16,00,28,17.30
2014,08,16,00,29,17.30
2014,08,16,00,30,17.30
2014,08,16,00,31,17.30
2014,08,16,00,32,17.30
2014,08,16,00,33,17.30
2014,08,16,00,34,17.30
2014,08,16,00,35,17.30
2014,08,16,00,36,17.30
2014,08,16,00,37,17.30
2014,08,16,00,38,17.30
2014,08,16,00,39,17.30
2014,08,16,00,40,17.30
2014,08,16,00,41,17.30
2014,08,16,00,42,17.30
2014,08,16,00,43,17.30
2014,08,16,00,44,17.30
2014,08,16,00,45,17.30
2014,08,16,00,46,17.30
2014,08,16,00,47,17.30
2014,08,16,00,48,17.30
2014,08,16,00,49,17.30
2014,08,16,00,50,17.30
2014,08,16,00,51,17.30
2014,08,16,00,52,17.30
2014,08,16,00,53,17.30
2014,08,16,00,54,17.30
2014,08,16,00,55,17.30
2014,08,16,00,56,17.30
2014,08,16,00,57,17.30
2014,08,16,00,58,17.30
2014,08,16,00,59,17.30
2014,08,16,01,00,17.30
2014,08,16,01,01,17.30
2014,08,16,01,02,17.30
2014,08,16,01,03,17.30
2014,08,16,01,04,17.30
2014,08,16,01,05,17.30
2014,08,16,01,06,17.30
2014,08,16,01,07,17.30
2014,08,16,01,08,17.30
2014,08,16,01,09,17.30
2014,08,16,01,10,17.30
2014,08,16,01,11,17.30
2014,08,16,01,12,17.30
2014,08,16,01,13,17.30
2014,08,16,01,14,17.30
2014,08,16,01,15,17.30
2014,08,16,01,16,17.30
2014,08,16,01,17,17.30
2014,08,16,01,18,17.30
2014,08,16,01,19,17.30
2014,08,16,01,20,17.30
2014,08,16,01,21,17.30
2014,08,16,01,22,17.30
2014,08,16,01,23,17.20
2014,08,16,01,24,17.20
2014,08,16,01,25,17.20
2014,08,16,01,26,17.20
2014,08,16,01,27,17.30
2014,08,16,01,28,17.20
2014,08,16,01,29,17.20
2014,08,16,01,30,17.30
2014,08,16,01,31,17.30
2014,08,16,01,32,17.30
2014,08,16,01,33,17.30
2014,08,16,01,34,17.30
2014,08,16,01,35,17.30
2014,08,16,01,36,17.30
2014,08,16,01,37,17.30
2014,08,16,01,38,17.30
2014,08,16,01,39,17.30
2014,08,16,01,40,17.30
2014,08,16,01,41,17.30
2014,08,16,01,42,17.30
2014,08,16,01,43,17.30
2014,08,16,01,44,17.30
2014,08,16,01,45,17.30
2014,08,16,01,46,17.30
2014,08,16,01,47,17.30
2014,08,16,01,48,17.30
2014,08,16,01,49,17.30
2014,08,16,01,50,17.30
2014,08,16,01,51,17.30
2014,08,16,01,52,17.30
2014,08,16,01,53,17.30
2014,08,16,01,54,17.30
2014,08,16,01,55,17.30
2014,08,16,01,56,17.30
2014,08,16,01,57,17.30
2014,08,16,01,58,17.30
2014,08,16,01,59,17.30
2014,08,16,02,00,17.30
2014,08,16,02,01,17.30
2014,08,16,02,02,17.30
2014,08,16,02,03,17.30
2014,08,16,02,04,17.30
2014,08,16,02,05,17.30
2014,08,16,02,06,17.30
2014,08,16,02,07,17.30
2014,08,16,02,08,17.30
2014,08,16,02,09,17.30
2014,08,16,02,10,17.30
2014,08,16,02,11,17.30
2014,08,16,02,12,17.30
2014,08,16,02,13,17.30
2014,08,16,02,14,17.30
2014,08,16,02,15,17.30
2014,08,16,02,16,17.30
2014,08,16,02,17,17.30
2014,08,16,02,18,17.30
2014,08,16,02,19,17.30
2014,08,16,02,20,17.30
2014,08,16,02,21,17.30
2014,08,16,02,22,17.30
2014,08,16,02,23,17.30
2014,08,16,02,24,17.30
2014,08,16,02,25,17.30
2014,08,16,02,26,17.30
2014,08,16,02,27,17.30
2014,08,16,02,28,17.30
2014,08,16,02,29,17.30
2014,08,16,02,30,17.30
2014,08,16,02,31,17.30
2014,08,16,02,32,17.30
2014,08,16,02,33,17.30
2014,08,16,02,34,17.30
2014,08,16,02,35,17.30
2014,08,16,02,36,17.30
2014,08,16,02,37,17.30
2014,08,16,02,38,17.30
2014,08,16,02,39,17.30
2014,08,16,02,40,17.30
2014,08,16,02,41,17.30
2014,08,16,02,42,17.30
2014,08,16,02,43,17.30
2014,08,16,02,44,17.30
2014,08,16,02,45,17.30
2014,08,16,02,46,17.30
2014,08,16,02,47,17.30
2014,08,16,02,48,17.30
2014,08,16,02,49,17.30
2014,08,16,02,50,17.30
2014,08,16,02,51,17.30
2014,08,16,02,52,17.30
2014,08,16,02,53,17.30
2014,08,16,02,54,17.30
2014,08,16,02,55,17.30
2014,08,16,02,56,17.30
2014,08,16,02,57,17.30
2014,08,16,02,58,17.30
2014,08,16,02,59,17.30
2014,08,16,03,00,17.30
2014,08,16,03,01,17.30
2014,08,16,03,02,17.30
2014,08,16,03,03,17.30
2014,08,16,03,04,17.30
2014,08,16,03,05,17.30
2014,08,16,03,06,17.30
2014,08,16,03,07,17.30
2014,08,16,03,08,17.30
2014,08,16,03,09,17.30
2014,08,16,03,10,17.30
2014,08,16,03,11,17.30
2014,08,16,03,12,17.30
2014,08,16,03,13,17.30
2014,08,16,03,14,17.30
2014,08,16,03,15,17.30
2014,08,16,03,16,17.30
2014,08,16,03,17,17.30
2014,08,16,03,18,17.30
2014,08,16,03,19,17.20
2014,08,16,03,20,17.20
2014,08,16,03,21,17.20
2014,08,16,03,22,17.20
2014,08,16,03,23,17.20
2014,08,16,03,24,17.20
2014,08,16,03,25,17.20
2014,08,16,03,26,17.20
2014,08,16,03,27,17.20
2014,08,16,03,28,17.20
2014,08,16,03,29,17.20
2014,08,16,03,30,17.20
2014,08,16,03,31,17.30
2014,08,16,03,32,17.30
2014,08,16,03,33,17.30
2014,08,16,03,34,17.30
2014,08,16,03,35,17.30
2014,08,16,03,36,17.30
2014,08,16,03,37,17.30
2014,08,16,03,38,17.30
2014,08,16,03,39,17.30
2014,08,16,03,40,17.30
2014,08,16,03,41,17.30
2014,08,16,03,42,17.30
2014,08,16,03,43,17.20
2014,08,16,03,44,17.20
2014,08,16,03,45,17.20
2014,08,16,03,46,17.20
2014,08,16,03,47,17.20
2014,08,16,03,48,17.20
2014,08,16,03,49,17.20
2014,08,16,03,50,17.20
2014,08,16,03,51,17.20
2014,08,16,03,52,17.20
2014,08,16,03,53,17.20
2014,08,16,03,54,17.20
2014,08,16,03,55,17.20
2014,08,16,03,56,17.20
2014,08,16,03,57,17.20
2014,08,16,03,58,17.20
2014,08,16,03,59,17.20
2014,08,16,04,00,17.20
2014,08,16,04,01,17.20
2014,08,16,04,02,17.20
2014,08,16,04,03,17.20
2014,08,16,04,04,17.20
2014,08,16,04,05,17.20
2014,08,16,04,06,17.20
2014,08,16,04,07,17.20
2014,08,16,04,08,17.20
2014,08,16,04,09,17.20
2014,08,16,04,10,17.20
2014,08,16,04,11,17.20
2014,08,16,04,12,17.20
2014,08,16,04,13,17.20
2014,08,16,04,14,17.20
2014,08,16,04,15,17.20
2014,08,16,04,16,17.20
2014,08,16,04,17,17.20
2014,08,16,04,18,17.20
2014,08,16,04,19,17.20
2014,08,16,04,20,17.20
2014,08,16,04,21,17.20
2014,08,16,04,22,17.20
2014,08,16,04,23,17.20
2014,08,16,04,24,17.20
2014,08,16,04,25,17.20
2014,08,16,04,26,17.20
2014,08,16,04,27,17.20
2014,08,16,04,28,17.20
2014,08,16,04,29,17.20
2014,08,16,04,30,17.20
2014,08,16,04,31,17.20
2014,08,16,04,32,17.20
2014,08,16,04,33,17.20
2014,08,16,04,34,17.20
2014,08,16,04,35,17.20
2014,08,16,04,36,17.20
2014,08,16,04,37,17.20
2014,08,16,04,38,17.20
2014,08,16,04,39,17.20
2014,08,16,04,40,17.20
2014,08,16,04,41,17.20
2014,08,16,04,42,17.20
2014,08,16,04,43,17.20
2014,08,16,04,44,17.20
2014,08,16,04,45,17.20
2014,08,16,04,46,17.20
2014,08,16,04,47,17.20
2014,08,16,04,48,17.20
2014,08,16,04,49,17.20
2014,08,16,04,50,17.20
2014,08,16,04,51,17.20
2014,08,16,04,52,17.20
2014,08,16,04,53,17.20
2014,08,16,04,54,17.20
2014,08,16,04,55,17.20
2014,08,16,04,56,17.20
2014,08,16,04,57,17.20
2014,08,16,04,58,17.20
2014,08,16,04,59,17.20
2014,08,16,05,00,17.20
2014,08,16,05,01,17.20
2014,08,16,05,02,17.20
2014,08,16,05,03,17.20
2014,08,16,05,04,17.20
2014,08,16,05,05,17.20
2014,08,16,05,06,17.20
2014,08,16,05,07,17.20
2014,08,16,05,08,17.20
2014,08,16,05,09,17.20
2014,08,16,05,10,17.20
2014,08,16,05,11,17.20
2014,08,16,05,12,17.20
2014,08,16,05,13,17.20
2014,08,16,05,14,17.20
2014,08,16,05,15,17.20
2014,08,16,05,16,17.20
2014,08,16,05,17,17.10
2014,08,16,05,18,17.10
2014,08,16,05,19,17.10
2014,08,16,05,20,17.10
2014,08,16,05,21,17.10
2014,08,16,05,22,17.10
2014,08,16,05,23,17.10
2014,08,16,05,24,17.10
2014,08,16,05,25,17.10
2014,08,16,05,26,17.10
2014,08,16,05,27,17.10
2014,08,16,05,28,17.00
2014,08,16,05,29,17.00
2014,08,16,05,30,17.00
2014,08,16,05,31,17.00
2014,08,16,05,32,17.00
2014,08,16,05,33,17.00
2014,08,16,05,34,17.00
2014,08,16,05,35,17.00
2014,08,16,05,36,17.00
2014,08,16,05,37,17.00
2014,08,16,05,38,17.00
2014,08,16,05,39,17.00
2014,08,16,05,40,17.00
2014,08,16,05,41,17.00
2014,08,16,05,42,17.00
2014,08,16,05,43,17.00
2014,08,16,05,44,17.00
2014,08,16,05,45,17.10
2014,08,16,05,46,17.10
2014,08,16,05,47,17.10
2014,08,16,05,48,17.10
2014,08,16,05,49,17.10
2014,08,16,05,50,17.10
2014,08,16,05,51,17.10
2014,08,16,05,52,17.10
2014,08,16,05,53,17.10
2014,08,16,05,54,17.10
2014,08,16,05,55,17.10
2014,08,16,05,56,17.10
2014,08,16,05,57,17.10
2014,08,16,05,58,17.10
2014,08,16,05,59,17.10
2014,08,16,06,00,17.10
2014,08,16,06,01,17.10
2014,08,16,06,02,17.10
2014,08,16,06,03,17.10
2014,08,16,06,04,17.10
2014,08,16,06,05,17.10
2014,08,16,06,06,17.10
2014,08,16,06,07,17.10
2014,08,16,06,08,17.10
2014,08,16,06,09,17.10
2014,08,16,06,10,17.10
2014,08,16,06,11,17.10
2014,08,16,06,12,17.10
2014,08,16,06,13,17.10
2014,08,16,06,14,17.10
2014,08,16,06,15,17.10
2014,08,16,06,16,17.10
2014,08,16,06,17,17.10
2014,08,16,06,18,17.10
2014,08,16,06,19,17.10
2014,08,16,06,20,17.10
2014,08,16,06,21,17.10
2014,08,16,06,22,17.10
2014,08,16,06,23,17.10
2014,08,16,06,24,17.10
2014,08,16,06,25,17.10
2014,08,16,06,26,17.10
2014,08,16,06,27,17.10
2014,08,16,06,28,17.10
2014,08,16,06,29,17.10
2014,08,16,06,30,17.00
2014,08,16,06,31,17.00
2014,08,16,06,32,17.00
2014,08,16,06,33,17.00
2014,08,16,06,34,17.00
2014,08,16,06,35,17.00
2014,08,16,06,36,17.00
2014,08,16,06,37,17.00
2014,08,16,06,38,17.00
2014,08,16,06,39,17.00
2014,08,16,06,40,17.00
2014,08,16,06,41,17.00
2014,08,16,06,42,17.00
2014,08,16,06,43,17.00
2014,08,16,06,44,17.00
2014,08,16,06,45,17.00
2014,08,16,06,46,17.00
2014,08,16,06,47,17.00
2014,08,16,06,48,17.00
2014,08,16,06,49,17.00
2014,08,16,06,50,17.00
2014,08,16,06,51,17.00
2014,08,16,06,52,17.00
2014,08,16,06,53,16.90
2014,08,16,06,54,16.90
2014,08,16,06,55,16.90
2014,08,16,06,56,16.90
2014,08,16,06,57,16.90
2014,08,16,06,58,16.90
2014,08,16,06,59,16.90
2014,08,16,07,00,16.90
2014,08,16,07,01,16.90
2014,08,16,07,02,16.90
2014,08,16,07,03,16.90
2014,08,16,07,04,16.90
2014,08,16,07,05,16.90
2014,08,16,07,06,16.90
2014,08,16,07,07,16.90
2014,08,16,07,08,16.90
2014,08,16,07,09,16.90
2014,08,16,07,10,16.90
2014,08,16,07,11,16.90
2014,08,16,07,12,16.90
2014,08,16,07,13,16.90
2014,08,16,07,14,16.90
2014,08,16,07,15,16.90
2014,08,16,07,16,16.90
2014,08,16,07,17,16.90
2014,08,16,07,18,16.90
2014,08,16,07,19,16.90
2014,08,16,07,20,16.90
2014,08,16,07,21,16.90
2014,08,16,07,22,16.90
2014,08,16,07,23,16.90
2014,08,16,07,24,16.90
2014,08,16,07,25,16.90
2014,08,16,07,26,16.90
2014,08,16,07,27,16.90
2014,08,16,07,28,16.90
2014,08,16,07,29,17.00
2014,08,16,07,30,17.00
2014,08,16,07,31,17.00
2014,08,16,07,32,17.10
2014,08,16,07,33,17.10
2014,08,16,07,34,17.10
2014,08,16,07,35,17.20
2014,08,16,07,36,17.20
2014,08,16,07,37,17.30
2014,08,16,07,38,17.30
2014,08,16,07,39,17.30
2014,08,16,07,40,17.40
2014,08,16,07,41,17.40
2014,08,16,07,42,17.40
2014,08,16,07,43,17.40
2014,08,16,07,44,17.40
2014,08,16,07,45,17.40
2014,08,16,07,46,17.50
2014,08,16,07,47,17.50
2014,08,16,07,48,17.50
2014,08,16,07,49,17.50
2014,08,16,07,50,17.60
2014,08,16,07,51,17.60
2014,08,16,07,52,17.60
2014,08,16,07,53,17.60
2014,08,16,07,54,17.60
2014,08,16,07,55,17.50
2014,08,16,07,56,17.50
2014,08,16,07,57,17.60
2014,08,16,07,58,17.60
2014,08,16,07,59,17.60
2014,08,16,08,00,17.70
2014,08,16,08,01,17.70
2014,08,16,08,02,17.70
2014,08,16,08,03,17.80
2014,08,16,08,04,17.80
2014,08,16,08,05,17.90
2014,08,16,08,06,17.90
2014,08,16,08,07,18.00
2014,08,16,08,08,18.00
2014,08,16,08,09,18.10
2014,08,16,08,10,18.10
2014,08,16,08,11,18.10
2014,08,16,08,12,18.20
2014,08,16,08,13,18.20
2014,08,16,08,14,18.20
2014,08,16,08,15,18.30
2014,08,16,08,16,18.30
2014,08,16,08,17,18.30
2014,08,16,08,18,18.30
2014,08,16,08,19,18.30
2014,08,16,08,20,18.30
2014,08,16,08,21,18.30
2014,08,16,08,22,18.30
2014,08,16,08,23,18.30
2014,08,16,08,24,18.30
2014,08,16,08,25,18.30
2014,08,16,08,26,18.30
2014,08,16,08,27,18.30
2014,08,16,08,28,18.30
2014,08,16,08,29,18.30
2014,08,16,08,30,18.30
2014,08,16,08,31,18.30
2014,08,16,08,32,18.30
2014,08,16,08,33,18.40
2014,08,16,08,34,18.40
2014,08,16,08,35,18.40
2014,08,16,08,36,18.40
2014,08,16,08,37,18.40
2014,08,16,08,38,18.40
2014,08,16,08,39,18.40
2014,08,16,08,40,18.50
2014,08,16,08,41,18.50
2014,08,16,08,42,18.50
2014,08,16,08,43,18.50
2014,08,16,08,44,18.60
2014,08,16,08,45,18.60
2014,08,16,08,46,18.60
2014,08,16,08,47,18.60
2014,08,16,08,48,18.60
2014,08,16,08,49,18.60
2014,08,16,08,50,18.60
2014,08,16,08,51,18.60
2014,08,16,08,52,18.70
2014,08,16,08,53,18.60
2014,08,16,08,54,18.60
2014,08,16,08,55,18.60
2014,08,16,08,56,18.60
2014,08,16,08,57,18.60
2014,08,16,08,58,18.60
2014,08,16,08,59,18.60
2014,08,16,09,00,18.60
2014,08,16,09,01,18.60
2014,08,16,09,02,18.60
2014,08,16,09,03,18.60
2014,08,16,09,04,18.60
2014,08,16,09,05,18.60
2014,08,16,09,06,18.60
2014,08,16,09,07,18.50
2014,08,16,09,08,18.50
2014,08,16,09,09,18.50
2014,08,16,09,10,18.50
2014,08,16,09,11,18.50
2014,08,16,09,12,18.50
2014,08,16,09,13,18.50
2014,08,16,09,14,18.50
2014,08,16,09,15,18.60
2014,08,16,09,16,18.60
2014,08,16,09,17,18.60
2014,08,16,09,18,18.60
2014,08,16,09,19,18.60
2014,08,16,09,20,18.60
2014,08,16,09,21,18.70
2014,08,16,09,22,18.70
2014,08,16,09,23,18.70
2014,08,16,09,24,18.70
2014,08,16,09,25,18.70
2014,08,16,09,26,18.70
2014,08,16,09,27,18.70
2014,08,16,09,28,18.80
2014,08,16,09,29,18.80
2014,08,16,09,30,18.80
2014,08,16,09,31,18.80
2014,08,16,09,32,18.80
2014,08,16,09,33,18.80
2014,08,16,09,34,18.80
2014,08,16,09,35,18.80
2014,08,16,09,36,18.80
2014,08,16,09,37,18.90
2014,08,16,09,38,18.90
2014,08,16,09,39,19.00
2014,08,16,09,40,19.00
2014,08,16,09,41,19.00
2014,08,16,09,42,19.10
2014,08,16,09,43,19.10
2014,08,16,09,44,19.20
2014,08,16,09,45,19.20
2014,08,16,09,46,19.20
2014,08,16,09,47,19.20
2014,08,16,09,48,19.20
2014,08,16,09,49,19.20
2014,08,16,09,50,19.20
2014,08,16,09,51,19.30
2014,08,16,09,52,19.30
2014,08,16,09,53,19.30
2014,08,16,09,54,19.30
2014,08,16,09,55,19.30
2014,08,16,09,56,19.40
2014,08,16,09,57,19.40
2014,08,16,09,58,19.40
2014,08,16,09,59,19.40
2014,08,16,10,00,19.40
2014,08,16,10,01,19.40
2014,08,16,10,02,19.40
2014,08,16,10,03,19.40
2014,08,16,10,04,19.50
2014,08,16,10,05,19.60
2014,08,16,10,06,19.60
2014,08,16,10,07,19.60
2014,08,16,10,08,19.70
2014,08,16,10,09,19.80
2014,08,16,10,10,19.80
2014,08,16,10,11,19.90
2014,08,16,10,12,19.90
2014,08,16,10,13,19.90
2014,08,16,10,14,19.90
2014,08,16,10,15,20.00
2014,08,16,10,16,20.00
2014,08,16,10,17,20.00
2014,08,16,10,18,20.00
2014,08,16,10,19,20.00
2014,08,16,10,20,20.00
2014,08,16,10,21,20.00
2014,08,16,10,22,20.00
2014,08,16,10,23,20.10
2014,08,16,10,24,20.10
2014,08,16,10,25,20.10
2014,08,16,10,26,20.10
2014,08,16,10,27,20.10
2014,08,16,10,28,20.10
2014,08,16,10,29,20.20
2014,08,16,10,30,20.20
2014,08,16,10,31,20.20
2014,08,16,10,32,20.20
2014,08,16,10,33,20.20
2014,08,16,10,34,20.20
2014,08,16,10,35,20.20
2014,08,16,10,36,20.20
2014,08,16,10,37,20.20
2014,08,16,10,38,20.20
2014,08,16,10,39,20.20
2014,08,16,10,40,20.20
2014,08,16,10,41,20.20
2014,08,16,10,42,20.30
2014,08,16,10,43,20.30
2014,08,16,10,44,20.30
2014,08,16,10,45,20.30
2014,08,16,10,46,20.30
2014,08,16,10,47,20.30
2014,08,16,10,48,20.30
2014,08,16,10,49,20.30
2014,08,16,10,50,20.20
2014,08,16,10,51,20.20
2014,08,16,10,52,20.20
2014,08,16,10,53,20.20
2014,08,16,10,54,20.20
2014,08,16,10,55,20.20
2014,08,16,10,56,20.20
2014,08,16,10,57,20.20
2014,08,16,10,58,20.20
2014,08,16,10,59,20.20
2014,08,16,11,00,20.20
2014,08,16,11,01,20.20
2014,08,16,11,02,20.20
2014,08,16,11,03,20.30
2014,08,16,11,04,20.30
2014,08,16,11,05,20.30
2014,08,16,11,06,20.30
2014,08,16,11,07,20.30
2014,08,16,11,08,20.40
2014,08,16,11,09,20.40
2014,08,16,11,10,20.40
2014,08,16,11,11,20.40
2014,08,16,11,12,20.50
2014,08,16,11,13,20.50
2014,08,16,11,14,20.50
2014,08,16,11,15,20.50
2014,08,16,11,16,20.50
2014,08,16,11,17,20.50
2014,08,16,11,18,20.40
2014,08,16,11,19,20.50
2014,08,16,11,20,20.50
2014,08,16,11,21,20.50
2014,08,16,11,22,20.50
2014,08,16,11,23,20.40
2014,08,16,11,24,20.40
2014,08,16,11,25,20.40
2014,08,16,11,26,20.30
2014,08,16,11,27,20.30
2014,08,16,11,28,20.30
2014,08,16,11,29,20.30
2014,08,16,11,30,20.30
2014,08,16,11,31,20.30
2014,08,16,11,32,20.40
2014,08,16,11,33,20.40
2014,08,16,11,34,20.40
2014,08,16,11,35,20.40
2014,08,16,11,36,20.40
2014,08,16,11,37,20.50
2014,08,16,11,38,20.50
2014,08,16,11,39,20.60
2014,08,16,11,40,20.60
2014,08,16,11,41,20.70
2014,08,16,11,42,20.70
2014,08,16,11,43,20.70
2014,08,16,11,44,20.70
2014,08,16,11,45,20.80
2014,08,16,11,46,20.80
2014,08,16,11,47,20.80
2014,08,16,11,48,20.80
2014,08,16,11,49,20.80
2014,08,16,11,50,20.90
2014,08,16,11,51,21.00
2014,08,16,11,52,21.00
2014,08,16,11,53,21.00
2014,08,16,11,54,21.10
2014,08,16,11,55,21.10
2014,08,16,11,56,21.20
2014,08,16,11,57,21.30
2014,08,16,11,58,21.30
2014,08,16,11,59,21.40
2014,08,16,12,00,21.50
2014,08,16,12,01,21.50
2014,08,16,12,02,21.60
2014,08,16,12,03,21.60
2014,08,16,12,04,21.70
2014,08,16,12,05,21.70
2014,08,16,12,06,21.80
2014,08,16,12,07,21.80
2014,08,16,12,08,21.80
2014,08,16,12,09,21.80
2014,08,16,12,10,21.90
2014,08,16,12,11,21.90
2014,08,16,12,12,21.90
2014,08,16,12,13,22.00
2014,08,16,12,14,22.00
2014,08,16,12,15,22.00
2014,08,16,12,16,22.00
2014,08,16,12,17,22.00
2014,08,16,12,18,22.00
2014,08,16,12,19,22.00
2014,08,16,12,20,22.00
2014,08,16,12,21,22.00
2014,08,16,12,22,22.00
2014,08,16,12,23,22.10
2014,08,16,12,24,22.20
2014,08,16,12,25,22.20
2014,08,16,12,26,22.30
2014,08,16,12,27,22.40
2014,08,16,12,28,22.50
2014,08,16,12,29,22.60
2014,08,16,12,30,22.60
2014,08,16,12,31,22.70
2014,08,16,12,32,22.70
2014,08,16,12,33,22.80
2014,08,16,12,34,22.80
2014,08,16,12,35,22.80
2014,08,16,12,36,22.70
2014,08,16,12,37,22.70
2014,08,16,12,38,22.70
2014,08,16,12,39,22.60
2014,08,16,12,40,22.60
2014,08,16,12,41,22.50
2014,08,16,12,42,22.40
2014,08,16,12,43,22.30
2014,08,16,12,44,22.20
2014,08,16,12,45,22.20
2014,08,16,12,46,22.20
2014,08,16,12,47,22.10
2014,08,16,12,48,22.10
2014,08,16,12,49,22.00
2014,08,16,12,50,21.90
2014,08,16,12,51,21.70
2014,08,16,12,52,21.60
2014,08,16,12,53,21.40
2014,08,16,12,54,21.30
2014,08,16,12,55,21.30
2014,08,16,12,56,21.20
2014,08,16,12,57,21.10
2014,08,16,12,58,21.10
2014,08,16,12,59,21.10
2014,08,16,13,00,21.00
2014,08,16,13,01,21.10
2014,08,16,13,02,21.10
2014,08,16,13,03,21.20
2014,08,16,13,04,21.20
2014,08,16,13,05,21.20
2014,08,16,13,06,21.30
2014,08,16,13,07,21.30
2014,08,16,13,08,21.30
2014,08,16,13,09,21.30
2014,08,16,13,10,21.30
2014,08,16,13,11,21.30
2014,08,16,13,12,21.30
2014,08,16,13,13,21.30
2014,08,16,13,14,21.20
2014,08,16,13,15,21.20
2014,08,16,13,16,21.30
2014,08,16,13,17,21.40
2014,08,16,13,18,21.50
2014,08,16,13,19,21.60
2014,08,16,13,20,21.70
2014,08,16,13,21,21.80
2014,08,16,13,22,21.90
2014,08,16,13,23,22.00
2014,08,16,13,24,22.00
2014,08,16,13,25,21.90
2014,08,16,13,26,21.90
2014,08,16,13,27,21.80
2014,08,16,13,28,21.80
2014,08,16,13,29,21.80
2014,08,16,13,30,21.80
2014,08,16,13,31,21.80
2014,08,16,13,32,21.80
2014,08,16,13,33,21.90
2014,08,16,13,34,21.80
2014,08,16,13,35,21.80
2014,08,16,13,36,21.80
2014,08,16,13,37,21.70
2014,08,16,13,38,21.60
2014,08,16,13,39,21.50
2014,08,16,13,40,21.50
2014,08,16,13,41,21.60
2014,08,16,13,42,21.70
2014,08,16,13,43,21.80
2014,08,16,13,44,22.00
2014,08,16,13,45,22.00
2014,08,16,13,46,22.10
2014,08,16,13,47,22.00
2014,08,16,13,48,21.90
2014,08,16,13,49,21.80
2014,08,16,13,50,21.80
2014,08,16,13,51,21.70
2014,08,16,13,52,21.70
2014,08,16,13,53,21.70
2014,08,16,13,54,21.70
2014,08,16,13,55,21.80
2014,08,16,13,56,21.80
2014,08,16,13,57,21.90
2014,08,16,13,58,22.00
2014,08,16,13,59,22.10
2014,08,16,14,00,22.20
2014,08,16,14,01,22.20
2014,08,16,14,02,22.20
2014,08,16,14,03,22.20
2014,08,16,14,04,22.20
2014,08,16,14,05,22.30
2014,08,16,14,06,22.30
2014,08,16,14,07,22.40
2014,08,16,14,08,22.40
2014,08,16,14,09,22.50
2014,08,16,14,10,22.50
2014,08,16,14,11,22.50
2014,08,16,14,12,22.60
2014,08,16,14,13,22.60
2014,08,16,14,14,22.60
2014,08,16,14,15,22.60
2014,08,16,14,16,22.60
2014,08,16,14,17,22.60
2014,08,16,14,18,22.70
2014,08,16,14,19,22.70
2014,08,16,14,20,22.70
2014,08,16,14,21,22.70
2014,08,16,14,22,22.70
2014,08,16,14,23,22.70
2014,08,16,14,24,22.70
2014,08,16,14,25,22.70
2014,08,16,14,26,22.70
2014,08,16,14,27,22.70
2014,08,16,14,28,22.70
2014,08,16,14,29,22.60
2014,08,16,14,30,22.50
2014,08,16,14,31,22.50
2014,08,16,14,32,22.40
2014,08,16,14,33,22.40
2014,08,16,14,34,22.40
2014,08,16,14,35,22.40
2014,08,16,14,36,22.40
2014,08,16,14,37,22.50
2014,08,16,14,38,22.60
2014,08,16,14,39,22.70
2014,08,16,14,40,22.80
2014,08,16,14,41,22.90
2014,08,16,14,42,22.90
2014,08,16,14,43,22.90
2014,08,16,14,44,22.90
2014,08,16,14,45,22.90
2014,08,16,14,46,22.90
2014,08,16,14,47,22.90
2014,08,16,14,48,22.80
2014,08,16,14,49,22.80
2014,08,16,14,50,22.70
2014,08,16,14,51,22.60
2014,08,16,14,52,22.60
2014,08,16,14,53,22.60
2014,08,16,14,54,22.70
2014,08,16,14,55,22.80
2014,08,16,14,56,22.80
2014,08,16,14,57,22.90
2014,08,16,14,58,23.00
2014,08,16,14,59,23.10
2014,08,16,15,00,23.20
2014,08,16,15,01,23.20
2014,08,16,15,02,23.20
2014,08,16,15,03,23.10
2014,08,16,15,04,23.00
2014,08,16,15,05,22.80
2014,08,16,15,06,22.80
2014,08,16,15,07,22.70
2014,08,16,15,08,22.60
2014,08,16,15,09,22.60
2014,08,16,15,10,22.60
2014,08,16,15,11,22.60
2014,08,16,15,12,22.60
2014,08,16,15,13,22.50
2014,08,16,15,14,22.50
2014,08,16,15,15,22.60
2014,08,16,15,16,22.70
2014,08,16,15,17,22.80
2014,08,16,15,18,22.90
2014,08,16,15,19,23.00
2014,08,16,15,20,23.10
2014,08,16,15,21,23.20
2014,08,16,15,22,23.30
2014,08,16,15,23,23.30
2014,08,16,15,24,23.20
2014,08,16,15,25,23.10
2014,08,16,15,26,23.00
2014,08,16,15,27,23.00
2014,08,16,15,28,22.90
2014,08,16,15,29,22.90
2014,08,16,15,30,22.80
2014,08,16,15,31,22.80
2014,08,16,15,32,22.80
2014,08,16,15,33,22.80
2014,08,16,15,34,22.80
2014,08,16,15,35,22.80
2014,08,16,15,36,22.90
2014,08,16,15,37,23.00
2014,08,16,15,38,23.20
2014,08,16,15,39,23.40
2014,08,16,15,40,23.50
2014,08,16,15,41,23.60
2014,08,16,15,42,23.70
2014,08,16,15,43,23.80
2014,08,16,15,44,23.80
2014,08,16,15,45,23.90
2014,08,16,15,46,23.90
2014,08,16,15,47,24.00
2014,08,16,15,48,24.10
2014,08,16,15,49,24.20
2014,08,16,15,50,24.30
2014,08,16,15,51,24.40
2014,08,16,15,52,24.50
2014,08,16,15,53,24.60
2014,08,16,15,54,24.70
2014,08,16,15,55,24.70
2014,08,16,15,56,24.80
2014,08,16,15,57,24.80
2014,08,16,15,58,24.80
2014,08,16,15,59,24.80
2014,08,16,16,00,24.80
2014,08,16,16,01,24.70
2014,08,16,16,02,24.70
2014,08,16,16,03,24.70
2014,08,16,16,04,24.70
2014,08,16,16,05,24.70
2014,08,16,16,06,24.70
2014,08,16,16,07,24.70
2014,08,16,16,08,24.70
2014,08,16,16,09,24.70
2014,08,16,16,10,24.70
2014,08,16,16,11,24.60
2014,08,16,16,12,24.60
2014,08,16,16,13,24.60
2014,08,16,16,14,24.60
2014,08,16,16,15,24.60
2014,08,16,16,16,24.70
2014,08,16,16,17,24.80
2014,08,16,16,18,24.80
2014,08,16,16,19,24.80
2014,08,16,16,20,24.90
2014,08,16,16,21,24.90
2014,08,16,16,22,24.90
2014,08,16,16,23,24.90
2014,08,16,16,24,24.90
2014,08,16,16,25,25.00
2014,08,16,16,26,25.10
2014,08,16,16,27,25.10
2014,08,16,16,28,25.10
2014,08,16,16,29,25.20
2014,08,16,16,30,25.20
2014,08,16,16,31,25.20
2014,08,16,16,32,25.20
2014,08,16,16,33,25.20
2014,08,16,16,34,25.20
2014,08,16,16,35,25.20
2014,08,16,16,36,25.20
2014,08,16,16,37,25.20
2014,08,16,16,38,25.20
2014,08,16,16,39,25.10
2014,08,16,16,40,25.10
2014,08,16,16,41,25.10
2014,08,16,16,42,25.10
2014,08,16,16,43,25.10
2014,08,16,16,44,25.20
2014,08,16,16,45,25.20
2014,08,16,16,46,25.20
2014,08,16,16,47,25.20
2014,08,16,16,48,25.20
2014,08,16,16,49,25.20
2014,08,16,16,50,25.20
2014,08,16,16,51,25.20
2014,08,16,16,52,25.20
2014,08,16,16,53,25.20
2014,08,16,16,54,25.20
2014,08,16,16,55,25.30
2014,08,16,16,56,25.30
2014,08,16,16,57,25.20
2014,08,16,16,58,25.30
2014,08,16,16,59,25.30
2014,08,16,17,00,25.30
2014,08,16,17,01,25.30
2014,08,16,17,02,25.40
2014,08,16,17,03,25.40
2014,08,16,17,04,25.50
2014,08,16,17,05,25.50
2014,08,16,17,06,25.50
2014,08,16,17,07,25.50
2014,08,16,17,08,25.40
2014,08,16,17,09,25.40
2014,08,16,17,10,25.40
2014,08,16,17,11,25.50
2014,08,16,17,12,25.50
2014,08,16,17,13,25.60
2014,08,16,17,14,25.70
2014,08,16,17,15,25.70
2014,08,16,17,16,25.70
2014,08,16,17,17,25.70
2014,08,16,17,18,25.70
2014,08,16,17,19,25.70